TimeEST,TemperatureF,Dew PointF,Humidity,Sea Level PressureIn,VisibilityMPH,Wind Direction,Wind SpeedMPH,Gust SpeedMPH,PrecipitationIn,Events,Conditions,WindDirDegrees,DateUTC
12:53 AM,66.0,62.1,87,30.28,10.0,East,10.4,-,N/A,,Overcast,80,2014-01-09 05:53:00
1:42 AM,66.2,62.6,88,30.27,10.0,East,8.1,-,N/A,,Overcast,100,2014-01-09 06:42:00
1:53 AM,66.9,62.1,84,30.26,10.0,East,10.4,-,N/A,,Overcast,100,2014-01-09 06:53:00
2:29 AM,66.2,62.6,88,30.26,7.0,East,8.1,-,0.00,Rain,Light Rain,90,2014-01-09 07:29:00
2:53 AM,66.0,64.0,93,30.25,10.0,ENE,9.2,-,0.00,,Overcast,70,2014-01-09 07:53:00
3:53 AM,66.0,63.0,90,30.24,10.0,ENE,12.7,-,0.00,,Overcast,70,2014-01-09 08:53:00
4:22 AM,66.2,62.6,88,30.25,10.0,East,12.7,-,N/A,,Overcast,80,2014-01-09 09:22:00
4:53 AM,68.0,62.1,81,30.25,10.0,East,10.4,-,N/A,,Overcast,80,2014-01-09 09:53:00
5:53 AM,66.9,62.1,84,30.25,9.0,East,9.2,-,0.00,Rain,Light Rain,80,2014-01-09 10:53:00
6:53 AM,68.0,62.1,81,30.25,10.0,East,12.7,-,0.00,,Overcast,80,2014-01-09 11:53:00
7:05 AM,68.0,62.6,83,30.25,10.0,ENE,11.5,-,N/A,,Overcast,70,2014-01-09 12:05:00
7:53 AM,68.0,63.0,84,30.27,10.0,ENE,13.8,-,N/A,,Overcast,70,2014-01-09 12:53:00
8:53 AM,70.0,64.0,81,30.29,10.0,East,11.5,-,N/A,,Overcast,80,2014-01-09 13:53:00
9:53 AM,71.1,64.0,78,30.30,10.0,East,11.5,-,N/A,,Overcast,80,2014-01-09 14:53:00
10:53 AM,70.0,64.0,81,30.29,10.0,East,15.0,-,N/A,,Overcast,90,2014-01-09 15:53:00
11:53 AM,69.1,64.9,87,30.28,6.0,East,10.4,20.7,0.00,Rain,Light Rain,80,2014-01-09 16:53:00
12:17 PM,69.8,66.2,88,30.26,2.5,East,12.7,-,0.02,Rain,Rain,80,2014-01-09 17:17:00
12:34 PM,69.8,66.2,88,30.25,4.0,East,13.8,-,0.03,Rain,Light Rain,80,2014-01-09 17:34:00
12:53 PM,69.1,66.0,90,30.24,6.0,East,12.7,-,0.03,Rain,Light Rain,80,2014-01-09 17:53:00
1:53 PM,69.1,66.0,90,30.21,6.0,East,10.4,-,0.01,,Overcast,80,2014-01-09 18:53:00
2:22 PM,69.8,66.2,88,30.20,2.5,East,13.8,-,0.00,Rain,Light Rain,80,2014-01-09 19:22:00
2:28 PM,69.8,66.2,88,30.21,4.0,East,11.5,-,0.00,Rain,Light Rain,80,2014-01-09 19:28:00
2:44 PM,69.8,66.2,88,30.21,4.0,East,13.8,20.7,0.00,Rain,Light Rain,80,2014-01-09 19:44:00
2:53 PM,69.1,66.9,93,30.20,4.0,East,11.5,20.7,0.00,Rain,Light Rain,90,2014-01-09 19:53:00
3:53 PM,70.0,66.9,90,30.21,10.0,East,10.4,-,0.01,,Overcast,80,2014-01-09 20:53:00
4:53 PM,70.0,66.0,87,30.21,10.0,East,13.8,-,N/A,,Overcast,80,2014-01-09 21:53:00
6:53 PM,70.0,66.0,87,30.22,10.0,East,15.0,-,N/A,,Overcast,80,2014-01-09 23:53:00
7:53 PM,70.0,66.0,87,30.23,10.0,East,12.7,-,N/A,,Overcast,90,2014-01-10 00:53:00
8:53 PM,70.0,66.9,90,30.24,8.0,East,13.8,-,N/A,,Overcast,80,2014-01-10 01:53:00
9:53 PM,71.1,66.9,87,30.25,10.0,East,13.8,23.0,N/A,,Overcast,90,2014-01-10 02:53:00
10:53 PM,71.1,66.9,87,30.23,10.0,East,18.4,28.8,N/A,,Overcast,100,2014-01-10 03:53:00
11:53 PM,71.1,68.0,90,30.22,10.0,East,12.7,-,N/A,,Overcast,100,2014-01-10 04:53:00